Orbital Elements at Epoch 2459200.5 (2020-Dec-17.0) TDB
Reference: JPL 34 (heliocentric ecliptic J2000)
Element | Value | Uncertainty (1-sigma) | Units |
e | .594372287335016 | 7.5628e-08 | |
a | 2.8211559667084 | 2.5972e-07 | au |
q | 1.1443390418471 | 1.995e-07 | au |
i | 8.529917677142608 | 1.4627e-05 | deg |
node | 241.6057360733271 | 2.7044e-05 | deg |
peri | 22.53208276155019 | 7.7759e-05 | deg |
M | 88.21060401727701 | 0.00015651 | deg |
tp | 2458776.410649359413 (2019-Oct-19.91064936) | 0.00069396 | TDB |
period | 1730.76885632377 4.74 | 0.000239 6.543e-07 | d yr |
n | .2080000450000331 | 2.8723e-08 | deg/d |
Q | 4.497972891569701 | 4.1409e-07 | au |
|
| | Orbit Determination Parameters
Additional Information
|